Main page
METAR-TAF:

METAR-TAF

Airports :

J. Lynn Helms Sevier County Airport

De Queen, Arkansas, United States

latitude: 34-02-49N, longitude: 094-23-58W, elevation: 354 ft

Current weather observation

The report was made 1 hour and 10 minutes ago, at 10:53 UTC
Wind 3 mph from the Northeast
Temperature 75°F
Humidity 89%
Pressure 30.15 in. Hg
Visibility: 10 miles
Clear sky

METAR: KDEQ 201053Z AUTO 05003KT 10SM CLR 24/22 A3015 RMK AO2 SLP203 T02390222

Time: 07:03 (12:03 UTC)


TAF: missing

Weather observations and forecasts of more than 4000 airports (METAR and TAF reports).

The available stations are represented by yellow and red dots on the map.

Hover mouse over dot to see the name of the station.

Then click to see weather observations and forecasts.

To change the map : click on the green buttons with a black cross to zoom in, on the green button with a dash to zoom out, or on the green arrows for adjacent maps.


METAR-TAF: